This is the latest recevied weather packets stored in our database for station/object OE-11365. If no packets are shown the sender has not sent any weather packets the latest 10 day(s).
| Time | Temp. | Humidity | Pressure | Rain* | Wind** | Luminosity | Snow |
|---|---|---|---|---|---|---|---|
| 1787650901 | 15.56° C | 91% | 1013.8 hPa | 2.29 mm | - | 255 W/m² | - |
| 1787650528 | 15° C | 92% | 1013.9 hPa | 2.54 mm | - | 170 W/m² | - |
| 1787649928 | 15° C | 91% | 1014.1 hPa | 2.54 mm | - | 105 W/m² | - |
| 1787649100 | 15° C | 91% | 1014.1 hPa | 2.29 mm | - | 78 W/m² | - |
| 1787648728 | 15° C | 91% | 1014.2 hPa | 1.78 mm | - | 65 W/m² | - |
| 1787648128 | 15° C | 89% | 1014.2 hPa | 1.52 mm | - | 59 W/m² | - |
| 1787647300 | 15° C | 89% | 1014.2 hPa | 1.02 mm | - | 65 W/m² | - |
| 1787646928 | 15° C | 89% | 1014.2 hPa | 0.51 mm | - | 65 W/m² | - |
| 1787646328 | 15° C | 87% | 1014.2 hPa | 0.51 mm | - | 65 W/m² | - |
| 1787645500 | 15° C | 87% | 1014.3 hPa | 0 mm | - | 72 W/m² | - |
| 1787645128 | 15° C | 84% | 1014.2 hPa | 0 mm | - | 72 W/m² | - |
| 1787644528 | 14.44° C | 85% | 1014 hPa | 0 mm | - | 72 W/m² | - |
| 1787643702 | 14.44° C | 87% | 1014.1 hPa | 0 mm | - | 78 W/m² | - |
| 1787643329 | 14.44° C | 87% | 1014 hPa | 0 mm | - | 65 W/m² | - |
| 1787642729 | 14.44° C | 88% | 1014.1 hPa | 0 mm | - | 85 W/m² | - |
| 1787641902 | 14.44° C | 86% | 1014.2 hPa | 0 mm | - | 78 W/m² | - |
| 1787641528 | 14.44° C | 86% | 1014.2 hPa | 0 mm | - | 65 W/m² | - |
| 1787640928 | 13.89° C | 87% | 1014.1 hPa | 0 mm | - | 59 W/m² | - |
| 1787640102 | 13.89° C | 88% | 1014.1 hPa | 0 mm | - | 59 W/m² | - |
| 1787639728 | 13.89° C | 90% | 1014.1 hPa | 0 mm | - | 52 W/m² | - |
| 1787639129 | 13.89° C | 90% | 1014.4 hPa | 0 mm | - | 33 W/m² | - |
| 1787638301 | 13.89° C | 90% | 1014.5 hPa | 0 mm | - | 33 W/m² | - |
| 1787637929 | 13.89° C | 86% | 1014.3 hPa | 0 mm | - | 59 W/m² | - |
| 1787637329 | 13.33° C | 88% | 1014.2 hPa | 0 mm | - | 52 W/m² | - |
| 1787636501 | 13.33° C | 89% | 1014.2 hPa | 0 mm | - | 52 W/m² | - |
* Rain latest hour (hover to see other rain measurements)
** Current wind speed in m/s (hover to see current wind gust speed)